McGrath, AK

5:06 PM AKDT on July 20, 2017 (GMT -0800)
McGrath

Weather History for PAMC - November, 2011

Change the Weather History Date:

Wednesday, November 2, 2011

  Actual Average Record
Temperature  
Mean Temperature 4 °F 13 °F  
Max Temperature 13 °F 19 °F 46 °F (1954)
Min Temperature -6 °F 6 °F -28 °F (1975)
Degree Days  
Heating Degree Days 61 53  
Month to date heating degree days 124 105  
Since 1 July heating degree days 2304 2445  
Cooling Degree Days 0 0  
Month to date cooling degree days 0 0  
Year to date cooling degree days 6 20  
Moisture  
Dew Point 3 °F    
Average Humidity 0    
Maximum Humidity 0    
Minimum Humidity 0    
Precipitation  
Precipitation 0.00 in 0.05 in 0.43 in (1994)
Month to date precipitation 0.00 0.09  
Year to date precipitation 13.27 15.39  
Snow  
Snow 0.00 in 0.60 in 4.20 in (1994)
Month to date snowfall 0.0 1.2  
Since 1 July snowfall 14.5 12.9  
Since 1 September snowfall 14.5 12.9  
Snow Depth 14.00 in    
Sea Level Pressure  
Sea Level Pressure 30.36 in    
Wind  
Wind Speed 1 mph (North)    
Max Wind Speed 6 mph    
Max Gust Speed 8 mph    
Visibility 5 miles    
Events Fog    
T = Trace of Precipitation, MM = Missing Value Source: NWS Daily Summary

Daily Weather History Graph

Daily Weather History Graph

Search for Another Location

Airport or City:

Trip Planner

Search our weather history database for the weather conditions in past years. The results will help you decide how hot, cold, wet, or windy it might be!

Date:

Astronomy

Nov. 02, 2011 Rise Set
Actual Time 10:01 AM AKDT 6:09 PM AKDT
Civil Twilight 9:10 AM AKDT 6:59 PM AKDT
Nautical Twilight 8:16 AM AKDT 7:54 PM AKDT
Astronomical Twilight 7:22 AM AKDT 8:47 PM AKDT
Moon 4:19 PM AKDT (11/2) No Moon Set
Length of Visible Light 9h 49m
Length of Day
8h 07m
First Quarter, 51% of the Moon is Illuminated
Nov 2
First Quarter
Nov 10
Full
Nov 18
Last Quarter
Nov 24
New
Dec 2
First Quarter

Hourly Weather History & Observations

Time (AKDT) Temp. Windchill Dew Point Humidity Pressure Visibility Wind Dir Wind Speed Gust Speed Precip Events Conditions
12:53 AM 7.0 °F -1.7 °F 3.9 °F 87% 30.24 in 10.0 mi WSW 4.6 mph - N/A   Clear
1:53 AM 1.9 °F - -2.0 °F 83% 30.28 in 10.0 mi Calm Calm - N/A   Clear
2:53 AM -0.0 °F - -4.0 °F 83% 30.30 in 10.0 mi Calm Calm - N/A   Clear
3:31 AM -0.4 °F - -5.8 °F 78% 30.28 in 10.0 mi Calm Calm - N/A   Mostly Cloudy
3:53 AM -2.0 °F - -6.0 °F 83% 30.32 in 10.0 mi Calm Calm - N/A   Mostly Cloudy
4:04 AM -2.2 °F - -7.6 °F 78% 30.28 in 10.0 mi Calm Calm - N/A   Scattered Clouds
4:53 AM -6.0 °F - -11.0 °F 79% 30.33 in 10.0 mi Calm Calm - N/A   Clear
5:09 AM -2.2 °F -14.2 °F -5.8 °F 85% 30.31 in 10.0 mi West 5.8 mph - N/A   Scattered Clouds
5:18 AM 1.4 °F -6.2 °F -2.2 °F 85% 30.31 in 10.0 mi WSW 3.5 mph - N/A   Mostly Cloudy
5:53 AM 1.9 °F -5.6 °F -2.0 °F 83% 30.35 in 10.0 mi WNW 3.5 mph - N/A   Mostly Cloudy
6:28 AM -2.2 °F - -7.6 °F 78% 30.34 in 10.0 mi Calm Calm - N/A   Scattered Clouds
6:49 AM -2.2 °F - -7.6 °F 78% 30.35 in 10.0 mi Calm Calm - N/A   Mostly Cloudy
6:53 AM -2.0 °F - -7.1 °F 79% 30.38 in 10.0 mi Calm Calm - N/A   Mostly Cloudy
7:40 AM -2.2 °F -12.5 °F -7.6 °F 78% 30.36 in 10.0 mi East 4.6 mph - N/A   Mostly Cloudy
7:53 AM -2.0 °F - -6.0 °F 83% 30.40 in 10.0 mi Calm Calm - N/A   Overcast
8:51 AM -0.4 °F - -5.8 °F 78% 30.37 in 2.5 mi Calm Calm - N/A   Overcast
8:53 AM -0.9 °F - -5.1 °F 83% 30.41 in 1.5 mi Calm Calm - N/A   Overcast
9:02 AM -0.4 °F - -4.0 °F 85% 30.37 in 0.5 mi Calm Calm - N/A Fog Light Freezing Fog
9:53 AM -0.9 °F - -2.9 °F 91% 30.42 in 0.2 mi Calm Calm - N/A Fog Light Freezing Fog
10:42 AM 1.4 °F - -2.2 °F 85% 30.39 in 2.0 mi Calm Calm - N/A   Overcast
10:53 AM 1.9 °F - -0.9 °F 88% 30.44 in 3.0 mi Calm Calm - N/A   Overcast
10:59 AM 1.4 °F - -2.2 °F 85% 30.40 in 1.8 mi Calm Calm - N/A   Overcast
11:11 AM 1.4 °F - -0.4 °F 92% 30.39 in 3.0 mi Calm Calm - N/A   Overcast
11:53 AM 3.9 °F - 1.0 °F 88% 30.45 in 10.0 mi Calm Calm - N/A   Overcast
12:53 PM 7.0 °F - 3.9 °F 87% 30.45 in 10.0 mi Calm Calm - N/A   Overcast
1:53 PM 9.0 °F - 6.1 °F 88% 30.45 in 1.8 mi Calm Calm - N/A   Overcast
2:09 PM 10.4 °F - 6.8 °F 85% 30.41 in 3.0 mi Calm Calm - N/A   Overcast
2:36 PM 10.4 °F - 8.6 °F 92% 30.41 in 1.5 mi Calm Calm - N/A   Overcast
2:44 PM 10.4 °F - 8.6 °F 92% 30.40 in 0.5 mi Calm Calm - N/A Fog Light Freezing Fog
2:53 PM 12.0 °F - 9.0 °F 88% 30.44 in 2.5 mi Calm Calm - N/A   Overcast
3:02 PM 12.2 °F - 10.4 °F 92% 30.40 in 1.8 mi Calm Calm - N/A   Overcast
3:20 PM 12.2 °F - 10.4 °F 92% 30.40 in 0.5 mi Calm Calm - N/A Fog Light Freezing Fog
3:37 PM 12.2 °F - 10.4 °F 92% 30.39 in 2.0 mi Calm Calm - N/A   Overcast
3:45 PM 12.2 °F 6.1 °F 10.4 °F 92% 30.39 in 8.0 mi East 3.5 mph - N/A   Overcast
3:53 PM 12.9 °F - 10.0 °F 88% 30.43 in 9.0 mi Calm Calm - N/A   Overcast
4:02 PM 12.2 °F - 10.4 °F 92% 30.39 in 1.5 mi Calm Calm - N/A   Overcast
4:10 PM 12.2 °F - 10.4 °F 92% 30.39 in 0.8 mi Calm Calm - N/A   Overcast
4:14 PM 12.2 °F - 10.4 °F 92% 30.39 in 2.5 mi Calm Calm - N/A   Overcast
4:21 PM 12.2 °F - 10.4 °F 92% 30.39 in 8.0 mi Calm Calm - N/A   Overcast
4:53 PM 12.9 °F 6.9 °F 10.0 °F 88% 30.42 in 8.0 mi NW 3.5 mph - N/A   Overcast
5:35 PM 12.2 °F - 8.6 °F 85% 30.37 in 6.0 mi Calm Calm - N/A   Overcast
5:53 PM 10.9 °F - 8.1 °F 88% 30.41 in 9.0 mi Calm Calm - N/A   Overcast
6:53 PM 10.9 °F - 8.1 °F 88% 30.40 in 5.0 mi Calm Calm - N/A   Overcast
7:19 PM 10.4 °F - 8.6 °F 92% 30.36 in 1.8 mi Calm Calm - N/A   Overcast
7:30 PM 10.4 °F - 8.6 °F 92% 30.36 in 0.8 mi Calm Calm - N/A   Mist
7:53 PM 12.0 °F - 9.0 °F 88% 30.39 in 0.8 mi Calm Calm - N/A   Mist
8:11 PM 10.4 °F - 8.6 °F 92% 30.34 in 1.2 mi Calm Calm - N/A   Overcast
8:35 PM 10.4 °F 2.2 °F 8.6 °F 92% 30.33 in 0.8 mi NE 4.6 mph - N/A   Mist
8:50 PM 10.4 °F 4.0 °F 8.6 °F 92% 30.33 in 1.2 mi NNE 3.5 mph - N/A   Overcast
8:53 PM 10.9 °F 4.7 °F 8.1 °F 88% 30.37 in 1.5 mi NNE 3.5 mph - N/A   Overcast
9:03 PM 10.4 °F 2.2 °F 8.6 °F 92% 30.33 in 2.0 mi NE 4.6 mph - N/A   Overcast
9:12 PM 10.4 °F - 8.6 °F 92% 30.33 in 1.5 mi Calm Calm - N/A   Overcast
9:29 PM 10.4 °F - 6.8 °F 85% 30.33 in 3.0 mi Calm Calm - N/A   Overcast
9:53 PM 9.0 °F 2.4 °F 6.1 °F 88% 30.36 in 4.0 mi NNE 3.5 mph - N/A   Overcast
9:59 PM 8.6 °F 2.0 °F 6.8 °F 92% 30.32 in 2.0 mi NNE 3.5 mph - N/A   Overcast
10:07 PM 8.6 °F -1.3 °F 6.8 °F 92% 30.31 in 1.8 mi North 5.8 mph - N/A   Overcast
10:27 PM 8.6 °F - 6.8 °F 92% 30.30 in 0.8 mi Calm Calm - N/A   Mist
10:53 PM 10.0 °F - 7.0 °F 87% 30.32 in 0.5 mi Calm Calm - N/A Fog Light Freezing Fog
11:48 PM 10.4 °F - 6.8 °F 85% 30.26 in 1.0 mi Calm Calm - N/A   Mist
11:53 PM 10.0 °F - 7.0 °F 87% 30.30 in 0.8 mi Calm Calm - N/A   Mist